Location: Vancouver
(49.2500°N, 123.1330°W)
Time: 00:05:01
(UTC-07:00)

Transit 2A Rocket - Visible Passes

Search period start: 26 June 2017 00:00
Search period end: 06 July 2017 00:00
Orbit: 591 x 913 km, 66.7° (Epoch: 25 June)

Date Brightness Start Highest point End Pass type
(mag) Time Alt. Az. Time Alt. Az. Time Alt. Az.
26 Jun 8.6 00:58:36 10° N 00:59:14 10° N 00:59:52 10° N visible
26 Jun 8.0 02:40:29 10° NNW 02:43:56 18° NNE 02:47:35 10° ENE visible
26 Jun 5.9 04:22:24 10° NNW 04:27:32 58° NE 04:33:08 10° SE visible
26 Jun 7.8 22:28:13 10° W 22:31:36 20° NNW 22:35:11 10° NNE visible
27 Jun 8.5 00:15:19 10° NNW 00:16:11 10° N 00:17:04 10° N visible
27 Jun 8.2 01:58:18 10° NNW 02:01:02 14° NNE 02:03:53 10° NE visible
27 Jun 6.6 03:40:07 10° NNW 03:44:59 40° NE 03:50:16 10° ESE visible
27 Jun 8.3 23:31:32 10° NNW 23:33:09 11° NNW 23:34:49 10° N visible
28 Jun 8.2 01:16:06 10° N 01:18:04 12° NNE 01:20:05 10° NE visible
28 Jun 7.2 02:57:52 10° NNW 03:02:20 29° NE 03:07:08 10° E visible
28 Jun 8.0 22:47:48 10° NW 22:50:10 14° NNW 22:52:37 10° N visible
29 Jun 8.3 00:33:50 10° N 00:35:02 11° N 00:36:15 10° NNE visible
29 Jun 7.6 02:15:40 10° NNW 02:19:36 22° NNE 02:23:46 10° E visible
29 Jun 5.3 03:57:42 10° NW 04:02:58 77° NE 04:08:43 10° SE visible
29 Jun 7.8 22:04:13 10° WNW 22:07:15 17° NNW 22:10:26 10° NNE visible
29 Jun 8.3 23:51:10 10° N 23:51:59 10° N 23:52:49 10° N visible
30 Jun 7.9 01:33:28 10° NNW 01:36:45 17° NNE 01:40:12 10° ENE visible
30 Jun 6.0 03:15:22 10° NNW 03:20:28 52° NE 03:26:01 10° SE visible
30 Jun 8.2 23:07:42 10° NNW 23:08:56 11° N 23:10:11 10° N visible
01 Jul 8.0 00:51:16 10° NNW 00:53:49 14° NNE 00:56:29 10° NE visible
01 Jul 6.7 02:33:05 10° NNW 02:37:53 36° NE 02:43:04 10° ESE visible
01 Jul 5.3 04:15:31 10° NW 04:20:43 53° WSW 04:26:19 10° SSE visible
01 Jul 8.0 22:23:58 10° NW 22:25:54 12° NNW 22:27:55 10° N visible
02 Jul 8.0 00:09:01 10° N 00:10:49 12° NNE 00:12:40 10° NNE visible
02 Jul 7.2 01:50:51 10° NNW 01:55:12 26° NE 01:59:52 10° E visible
02 Jul 5.1 03:33:02 10° NW 03:38:21 82° WSW 03:44:09 10° SSE visible
02 Jul 8.1 23:26:37 10° N 23:27:47 11° N 23:28:57 10° NNE visible
03 Jul 7.6 01:08:39 10° NNW 01:12:25 20° NNE 01:16:25 10° ENE visible
03 Jul 5.5 02:50:39 10° NNW 02:55:55 68° NE 03:01:39 10° SE visible
03 Jul 8.1 22:43:40 10° NNW 22:44:43 11° N 22:45:47 10° N visible
04 Jul 7.8 00:26:26 10° NNW 00:29:33 16° NNE 00:32:48 10° ENE visible
04 Jul 6.1 02:08:20 10° NNW 02:13:24 46° NE 02:18:53 10° ESE visible
04 Jul 5.6 03:51:01 10° NW 03:56:00 39° WSW 04:01:21 10° S visible
04 Jul 7.9 22:00:06 10° NNW 22:01:40 11° N 22:03:17 10° N visible
04 Jul 7.8 23:44:13 10° N 23:46:36 13° NNE 23:49:04 10° NE visible
05 Jul 6.7 01:26:04 10° NNW 01:30:47 32° NE 01:35:51 10° ESE visible
05 Jul 5.2 03:08:25 10° NW 03:13:43 61° WSW 03:19:26 10° SSE visible
05 Jul 7.9 23:01:54 10° N 23:03:35 11° N 23:05:18 10° NNE visible
